sat.trackr.live / text

‹ back to catalog

ONEWEB-0400

NORAD 50480 · 2021-132M

PAYLOAD ACTIVE UNKNOWN

§ Identity

Operator
Country
UK
Launch date
2021-12-27
Launch site
TYMSC
Launch vehicle
Mass (kg)
RCS (m²)

Purposes: comms

External: N2YO · Heavens-Above · Gunter

§ Orbital elements

Epoch: 2026-05-25T02:15:24.084000Z

Period
109.20 min
Inclination
87.9170°
Eccentricity
0.0001714
Mean motion
13.18687841 rev/d
Perigee alt
1,188.4 km
Apogee alt
1,191.0 km
Semi-major
7,567.9 km
B*
-2.0271e-4
RAAN
340.0398°
Arg perigee
93.2489°
Mean anomaly
266.8839°
Rev number
21,856

§ Raw data

ONEWEB-04001 50480U 21132M   26145.09402875 -.00000067  00000+0 -20271-3 0  99982 50480  87.9170 340.0398 0001714  93.2489 266.8839 13.18687841218567

JSON: /api/v1/satellites/50480 · /tle

For live sub-satellite position, see the globe view (requires WebGL).

§ Visibility from observer

Set your observer location to see the next 7 days of passes ≥ 10°. The values pass through the URL so the page stays shareable.

No JS? Fill the form by hand. The geolocation button needs JavaScript.